Location: *
(13.0000°N, 151.6000°E)
Time: 15:38:45
(UTC+00:00)

Cosmos 2227 Rocket - Pass Details

Date: 01 April 2020
Orbit: 837 x 847 km, 71.0° (Epoch: 04 June)

Event Time Altitude Azimuth Distance (km) Brightness Sun altitude
Exits shadow 17:59:19 11° 341° (NNW) 2,349 4.4 -27.3°
Drops below altitude 10° 17:59:39 10° 343° (NNW) 2,444 4.5 -27.2°
Sets 18:02:32 0° 357° (N) 3,379 5.4 -26.5°
